Flag for United Kingdom Weather past 2 weeks in Portsmouth, England, United Kingdom

Now
46 °F

Passing clouds.


Feels Like: 41 °F
Forecast: N/A
Wind: 12 mph from Southwest

Location: Southampton / Weather Centre

Current Time: Mar 6, 2015 at 5:57:03 PM

Latest Report: Mar 6, 2015 at 5:20 PM


Visibility: N/A

Pressure: 30.45 "Hg

Humidity: 71%

Dew point: 37 °F

Location of PortsmouthLocation

Historic Weather in Portsmouth — Graph

°F

Portsmouth temperature yesterday

Maximum temperature yesterday: 52 °F (at 1:50 PM)
Minimum temperature yesterday: 25 °F (at 6:20 AM)
Average temperature yesterday: 43 °F

Past Weeks' High & Low Weather Summary

 TemperatureHumidityPressure
High55 °F (Feb 25, 3:20 PM)100% (Feb 22, 7:20 AM)30.74 "Hg (Feb 22, 7:20 AM)
Low23 °F (Feb 22, 6:50 AM)46% (Mar 2, 11:50 AM)29.30 "Hg (Feb 22, 10:20 PM)
Average43 °F76%29.93 "Hg
* Reported Feb 19 4:20 PM — Mar 6 4:50 PM, Portsmouth, Weather by CustomWeather, © 2015

Note: Actual official high and low records may vary slightly from our data, if they occured in-between our weather recording intervals... More about our weather records

Advertising

Portsmouth weather history for previous 24 hours

 ConditionsComfort  
Time TempWeatherWind HumidityBarometerVisibility
4:50 PM
Fri, Mar 6
48 °FPassing clouds.12 mph66%30.45 "HgN/A
4:20 PM48 °FPassing clouds.14 mph66%30.45 "HgN/A
3:50 PM50 °FPassing clouds.15 mph58%30.48 "HgN/A
3:20 PM50 °FPassing clouds.14 mph58%30.51 "HgN/A
2:50 PM50 °FPassing clouds.16 mph62%30.51 "HgN/A
2:20 PM50 °FPassing clouds.14 mph62%30.51 "HgN/A
1:50 PM50 °FPassing clouds.13 mph62%30.51 "HgN/A
1:20 PM50 °FScattered clouds.15 mph67%30.54 "HgN/A
12:50 PM48 °FScattered clouds.15 mph71%30.54 "HgN/A
12:20 PM48 °FScattered clouds.14 mph71%30.54 "HgN/A
11:50 AM50 °FScattered clouds.16 mph62%30.54 "HgN/A
11:20 AM50 °FPassing clouds.17 mph67%30.54 "HgN/A
10:50 AM48 °FPassing clouds.17 mph66%30.57 "HgN/A
10:20 AM46 °FPassing clouds.12 mph82%30.57 "HgN/A
9:50 AM46 °FPassing clouds.2 mph87%30.60 "HgN/A
9:20 AM41 °FPartly sunny.1 mph93%30.63 "Hg5 mi
8:50 AM39 °FPartly sunny.No wind93%30.63 "Hg5 mi
8:20 AM36 °FScattered clouds.No wind93%30.63 "Hg4 mi
7:50 AM32 °FFog.No wind100%30.60 "Hg1 mi
7:20 AM30 °FSleet. Cloudy.2 mph93%30.60 "Hg2 mi
6:50 AM28 °FFog.1 mph100%30.60 "Hg1 mi
6:20 AM30 °FPassing clouds.2 mph93%30.60 "Hg5 mi
5:50 AM30 °FFog.1 mph93%30.60 "HgN/A
9:50 PM
Thu, Mar 5
41 °FClear.1 mph87%30.66 "Hg10 mi
9:20 PM43 °FPassing clouds.3 mph81%30.66 "HgN/A
8:50 PM45 °FPassing clouds.3 mph81%30.66 "HgN/A
8:20 PM45 °FPassing clouds.3 mph81%30.66 "HgN/A
7:50 PM46 °FPassing clouds.3 mph76%30.66 "HgN/A
7:20 PM46 °FPassing clouds.6 mph76%30.66 "HgN/A
6:50 PM45 °FPassing clouds.3 mph81%30.66 "HgN/A
6:20 PM46 °FPassing clouds.3 mph71%30.66 "HgN/A
5:50 PM48 °FScattered clouds.2 mph62%30.66 "HgN/A
5:20 PM48 °FScattered clouds.3 mph62%30.66 "HgN/A
Weather by CustomWeather, © 2015

See weather overviewHow to use our weather pages